Location: Trenton (NJ)
(40.2170°N, 74.7430°W)
Time: 01:51:34
(UTC-04:00)

ISS - Visible Passes

Search period start: 25 June 2018 00:00
Search period end: 05 July 2018 00:00
Orbit: 402 x 407 km, 51.6° (Epoch: 25 June)

Date Brightness Start Highest point End Pass type
(mag) Time Alt. Az. Time Alt. Az. Time Alt. Az.
01 Jul -1.6 04:28:46 10° S 04:31:03 18° SE 04:33:21 10° E visible
03 Jul -3.1 04:20:53 18° SSW 04:22:57 43° SE 04:26:07 10° ENE visible
04 Jul -2.1 03:30:43 22° SE 03:30:55 22° SE 03:33:33 10° E visible
